TimeCDT,TemperatureF,Dew PointF,Humidity,Sea Level PressureIn,VisibilityMPH,Wind Direction,Wind SpeedMPH,Gust SpeedMPH,PrecipitationIn,Events,Conditions,WindDirDegrees,DateUTC
12:53 AM,57.0,57.0,100,30.03,0.2,SE,3.5,-,N/A,Fog,Fog,130,2012-09-30 05:53:00
1:53 AM,55.9,55.0,97,30.02,0.2,Calm,Calm,-,N/A,Fog,Fog,0,2012-09-30 06:53:00
2:42 AM,55.4,53.6,94,30.11,0.8,ESE,3.5,-,N/A,,Mist,110,2012-09-30 07:42:00
2:47 AM,55.4,53.6,94,30.11,1.0,Calm,Calm,-,N/A,,Mist,0,2012-09-30 07:47:00
2:53 AM,55.0,54.0,96,30.01,0.5,Calm,Calm,-,N/A,Fog,Fog,0,2012-09-30 07:53:00
3:01 AM,53.6,53.6,100,30.11,0.2,Calm,Calm,-,N/A,Fog,Fog,0,2012-09-30 08:01:00
3:14 AM,53.6,53.6,100,30.11,0.5,Calm,Calm,-,N/A,Fog,Fog,0,2012-09-30 08:14:00
3:34 AM,53.6,53.6,100,30.10,0.2,East,5.8,-,N/A,Fog,Fog,100,2012-09-30 08:34:00
3:53 AM,53.1,53.1,100,30.01,0.2,SW,3.5,-,N/A,Fog,Fog,230,2012-09-30 08:53:00
4:10 AM,53.6,53.6,100,30.10,0.2,SW,5.8,-,N/A,Fog,Fog,230,2012-09-30 09:10:00
4:27 AM,53.6,53.6,100,30.10,0.2,SW,5.8,-,N/A,Fog,Fog,230,2012-09-30 09:27:00
4:34 AM,53.6,53.6,100,30.10,0.2,WSW,4.6,-,N/A,Fog,Fog,240,2012-09-30 09:34:00
4:46 AM,53.6,53.6,100,30.10,0.8,WSW,5.8,-,N/A,,Mist,240,2012-09-30 09:46:00
4:49 AM,53.6,53.6,100,30.10,1.2,WSW,5.8,-,N/A,,Overcast,240,2012-09-30 09:49:00
4:53 AM,53.1,53.1,100,30.01,0.8,WSW,4.6,-,N/A,,Mist,240,2012-09-30 09:53:00
5:01 AM,53.6,53.6,100,30.10,1.2,SW,3.5,-,N/A,,Overcast,230,2012-09-30 10:01:00
5:05 AM,53.6,53.6,100,30.09,3.0,SW,3.5,-,N/A,,Overcast,230,2012-09-30 10:05:00
5:13 AM,53.6,51.8,94,30.09,5.0,WSW,3.5,-,N/A,,Mostly Cloudy,240,2012-09-30 10:13:00
5:53 AM,54.0,53.1,97,29.98,9.0,SSW,5.8,-,N/A,,Scattered Clouds,210,2012-09-30 10:53:00
6:53 AM,57.0,55.0,93,29.98,9.0,Calm,Calm,-,N/A,,Overcast,0,2012-09-30 11:53:00
7:53 AM,57.0,55.0,93,29.98,6.0,Calm,Calm,-,N/A,,Clear,0,2012-09-30 12:53:00
8:53 AM,59.0,57.0,93,29.99,6.0,Calm,Calm,-,N/A,,Clear,0,2012-09-30 13:53:00
9:53 AM,64.4,59.0,83,30.10,10.0,Calm,Calm,-,N/A,,Overcast,0,2012-09-30 14:53:00
10:53 AM,68.0,57.0,68,29.99,10.0,WNW,3.5,-,N/A,,Partly Cloudy,290,2012-09-30 15:53:00
11:53 AM,70.0,55.9,61,29.98,10.0,Calm,Calm,-,N/A,,Scattered Clouds,0,2012-09-30 16:53:00
12:02 PM,71.6,55.4,57,30.08,10.0,NW,5.8,-,N/A,,Mostly Cloudy,320,2012-09-30 17:02:00
12:10 PM,71.6,57.2,60,30.08,10.0,NNW,4.6,-,N/A,,Scattered Clouds,340,2012-09-30 17:10:00
12:53 PM,72.0,55.0,55,29.96,10.0,Variable,3.5,-,N/A,,Partly Cloudy,0,2012-09-30 17:53:00
1:53 PM,75.0,53.1,46,29.93,10.0,Variable,4.6,-,N/A,,Scattered Clouds,0,2012-09-30 18:53:00
2:53 PM,73.9,52.0,46,29.91,10.0,South,3.5,-,N/A,,Partly Cloudy,180,2012-09-30 19:53:00
3:53 PM,77.0,51.1,40,29.89,10.0,North,8.1,-,N/A,,Clear,10,2012-09-30 20:53:00
4:53 PM,75.9,48.9,38,29.88,10.0,NE,8.1,-,N/A,,Clear,40,2012-09-30 21:53:00
5:53 PM,70.0,55.9,61,29.90,10.0,Calm,Calm,-,0.00,Rain,Light Rain,0,2012-09-30 22:53:00
6:53 PM,69.8,57.2,64,30.01,10.0,Calm,Calm,-,N/A,,Clear,0,2012-09-30 23:53:00
7:53 PM,66.0,59.0,78,29.91,10.0,West,8.1,-,N/A,,Clear,270,2012-10-01 00:53:00
8:53 PM,63.0,54.0,72,29.91,10.0,WSW,5.8,-,N/A,,Clear,240,2012-10-01 01:53:00
9:53 PM,62.6,51.8,68,30.03,10.0,NW,3.5,-,N/A,,Clear,320,2012-10-01 02:53:00
10:18 PM,60.8,53.6,77,30.08,10.0,North,10.4,-,0.00,Rain-Thunderstorm,Light Thunderstorms and Rain,360,2012-10-01 03:18:00
10:53 PM,57.9,52.0,81,29.96,7.0,NNE,29.9,35.7,0.11,Rain-Thunderstorm,Thunderstorms and Rain,20,2012-10-01 03:53:00
11:44 PM,60.8,51.8,72,30.04,10.0,ENE,12.7,-,0.00,,Overcast,70,2012-10-01 04:44:00
11:53 PM,61.0,51.1,70,29.90,10.0,East,8.1,-,0.00,,Overcast,80,2012-10-01 04:53:00